When you browse on this site, cookies collect data to enhance your experience and personalize the content and advertising you see.
Visit our Privacy Policy to learn more. By continuing to use the site, you agree to this use of cookies and data.
  • In Hungary
  • List of Countries
  • For 7 days
  • Water Temperature
  • Satellite Maps
  • Weather Map
  • News
  • Weather Widgets
  • user-avatar
    Login

    Hourly Weather Kolacin

    Today, 16 January, Wednesday

    Time Temperature Precipitation Wind Pressure Humidity
    00:00 +2°C° 0.2 mm 9 mps 743 mmHg 87%
    01:00 +2°C° 0.2 mm 9 mps 744 mmHg 87%
    02:00 +2°C° 0.4 mm 8 mps 744 mmHg 89%
    03:00 +3°C° 0.4 mm 7 mps 744 mmHg 91%
    04:00 +3°C° 0.4 mm 6 mps 744 mmHg 92%
    05:00 +3°C° 0.4 mm 6 mps 745 mmHg 92%
    06:00 +3°C° 0.4 mm 6 mps 745 mmHg 92%
    07:00 +3°C° 0.4 mm 6 mps 745 mmHg 93%
    08:00 +3°C° 0.2 mm 6 mps 745 mmHg 90%
    09:00 +3°C° 0.2 mm 7 mps 746 mmHg 88%
    10:00 +4°C° 0.2 mm 7 mps 746 mmHg 86%
    11:00 +4°C° 0 mm 7 mps 746 mmHg 85%
    12:00 +4°C° 0 mm 7 mps 746 mmHg 84%
    13:00 +4°C° 0 mm 7 mps 746 mmHg 83%
    14:00 +4°C° 0 mm 6 mps 746 mmHg 84%
    15:00 +3°C° 0 mm 6 mps 746 mmHg 85%
    16:00 +3°C° 0 mm 5 mps 746 mmHg 86%
    17:00 +3°C° 0 mm 5 mps 746 mmHg 86%
    18:00 +3°C° 0 mm 5 mps 745 mmHg 86%
    19:00 +3°C° 0 mm 5 mps 745 mmHg 86%
    20:00 +3°C° 0 mm 5 mps 745 mmHg 85%
    21:00 +3°C° 0 mm 5 mps 744 mmHg 84%
    22:00 +2°C° 0 mm 5 mps 744 mmHg 82%
    23:00 +2°C° 0 mm 5 mps 744 mmHg 81%

    Tomorrow, 17 January, Thursday

    Time Temperature Precipitation Wind Pressure Humidity
    00:00 +2°C° 0 mm 6 mps 743 mmHg 80%
    01:00 +2°C° 0 mm 6 mps 742 mmHg 79%
    02:00 +1°C° 0 mm 6 mps 742 mmHg 76%
    03:00 +1°C° 0 mm 6 mps 741 mmHg 74%
    04:00 +1°C° 0 mm 6 mps 741 mmHg 71%
    05:00 0°C° 0 mm 7 mps 741 mmHg 71%
    06:00 0°C° 0 mm 7 mps 741 mmHg 71%
    07:00 0°C° 0 mm 7 mps 741 mmHg 71%
    08:00 +1°C° 0 mm 8 mps 741 mmHg 73%
    09:00 +1°C° 0 mm 8 mps 741 mmHg 75%
    10:00 +2°C° 0 mm 8 mps 742 mmHg 77%
    11:00 +2°C° 0 mm 8 mps 741 mmHg 75%
    12:00 +4°C° 0 mm 8 mps 741 mmHg 72%
    13:00 +4°C° 0 mm 7 mps 741 mmHg 70%
    14:00 +4°C° 0 mm 7 mps 741 mmHg 70%
    15:00 +4°C° 0 mm 6 mps 741 mmHg 71%
    16:00 +4°C° 0 mm 6 mps 740 mmHg 71%
    17:00 +3°C° 0 mm 7 mps 740 mmHg 72%
    18:00 +2°C° 0 mm 8 mps 740 mmHg 72%
    19:00 +2°C° 0 mm 9 mps 740 mmHg 72%
    20:00 +1°C° 0.6 mm 8 mps 741 mmHg 70%
    21:00 0°C° 0.6 mm 8 mps 742 mmHg 68%
    22:00 0°C° 0.6 mm 7 mps 743 mmHg 65%
    23:00 -1°C° 0 mm 7 mps 743 mmHg 67%

    Day after tomorrow, 18 January, Friday

    Time Temperature Precipitation Wind Pressure Humidity
    00:00 -1°C° 0 mm 8 mps 744 mmHg 68%
    01:00 -2°C° 0 mm 8 mps 744 mmHg 69%
    02:00 -2°C° 0 mm 8 mps 745 mmHg 71%
    03:00 -4°C° 0 mm 8 mps 745 mmHg 73%
    04:00 -3°C° 0 mm 7 mps 746 mmHg 75%
    05:00 -3°C° 0 mm 7 mps 747 mmHg 75%
    06:00 -3°C° 0 mm 7 mps 748 mmHg 75%
    07:00 -3°C° 0 mm 7 mps 749 mmHg 75%
    08:00 -3°C° 0.1 mm 7 mps 750 mmHg 74%
    09:00 -3°C° 0.1 mm 7 mps 751 mmHg 73%
    10:00 -3°C° 0.1 mm 7 mps 751 mmHg 72%
    11:00 -3°C° 0 mm 7 mps 752 mmHg 68%
    12:00 -2°C° 0 mm 6 mps 753 mmHg 65%
    13:00 -2°C° 0 mm 6 mps 753 mmHg 61%
    14:00 -1°C° 0 mm 5 mps 754 mmHg 64%
    15:00 -2°C° 0 mm 4 mps 754 mmHg 67%
    16:00 -2°C° 0 mm 3 mps 754 mmHg 70%
    17:00 -2°C° 0 mm 3 mps 754 mmHg 71%
    18:00 -2°C° 0 mm 3 mps 755 mmHg 72%
    19:00 -4°C° 0 mm 3 mps 755 mmHg 74%
    20:00 -4°C° 0 mm 3 mps 755 mmHg 74%
    21:00 -4°C° 0 mm 3 mps 755 mmHg 74%
    22:00 -2°C° 0 mm 3 mps 755 mmHg 74%
    23:00 -2°C° 0 mm 3 mps 755 mmHg 77%

    19 January, Saturday

    Time Temperature Precipitation Wind Pressure Humidity
    00:00 -2°C° 0 mm 3 mps 755 mmHg 81%
    01:00 -2°C° 0 mm 3 mps 755 mmHg 84%
    02:00 -2°C° 0 mm 3 mps 755 mmHg 85%
    03:00 -2°C° 0 mm 3 mps 755 mmHg 85%
    04:00 -2°C° 0 mm 3 mps 755 mmHg 86%
    05:00 -4°C° 0 mm 3 mps 755 mmHg 86%
    06:00 -4°C° 0 mm 3 mps 755 mmHg 87%
    07:00 -3°C° 0 mm 2 mps 755 mmHg 87%
    08:00 -2°C° 0 mm 3 mps 755 mmHg 84%
    09:00 -2°C° 0 mm 3 mps 755 mmHg 80%
    10:00 -1°C° 0 mm 3 mps 756 mmHg 77%
    11:00 +1°C° 0 mm 2 mps 755 mmHg 74%
    12:00 +1°C° 0 mm 2 mps 755 mmHg 71%
    13:00 +2°C° 0 mm 2 mps 755 mmHg 68%
    14:00 +1°C° 0 mm 2 mps 755 mmHg 71%
    15:00 +1°C° 0 mm 1 mps 755 mmHg 74%
    16:00 +1°C° 0 mm 1 mps 754 mmHg 77%
    17:00 0°C° 0 mm 1 mps 755 mmHg 77%
    18:00 0°C° 0 mm 1 mps 755 mmHg 78%
    19:00 0°C° 0 mm 1 mps 755 mmHg 78%
    20:00 0°C° 0 mm 1 mps 755 mmHg 77%
    21:00 0°C° 0 mm 1 mps 755 mmHg 76%
    22:00 -1°C° 0 mm 1 mps 755 mmHg 76%
    23:00 -1°C° 0 mm 1 mps 755 mmHg 75%

    20 January, Sunday

    Time Temperature Precipitation Wind Pressure Humidity
    00:00 -1°C° 0 mm 1 mps 755 mmHg 75%
    01:00 -1°C° 0 mm 1 mps 755 mmHg 75%
    02:00 -1°C° 0 mm 1 mps 755 mmHg 77%
    03:00 -1°C° 0 mm 1 mps 755 mmHg 80%
    04:00 -1°C° 0 mm 1 mps 755 mmHg 82%
    05:00 -1°C° 0 mm 1 mps 756 mmHg 84%
    06:00 -1°C° 0 mm 1 mps 756 mmHg 87%
    07:00 -4°C° 0 mm 2 mps 756 mmHg 90%
    08:00 -3°C° 0 mm 2 mps 757 mmHg 88%
    09:00 -2°C° 0 mm 2 mps 757 mmHg 86%
    10:00 -2°C° 0 mm 2 mps 758 mmHg 84%
    11:00 -1°C° 0 mm 2 mps 758 mmHg 77%
    12:00 -1°C° 0 mm 2 mps 758 mmHg 70%
    13:00 +1°C° 0 mm 2 mps 758 mmHg 62%
    14:00 -1°C° 0 mm 2 mps 758 mmHg 64%
    15:00 -1°C° 0 mm 2 mps 758 mmHg 65%
    16:00 -2°C° 0 mm 2 mps 759 mmHg 67%
    17:00 -2°C° 0 mm 2 mps 759 mmHg 68%
    18:00 -4°C° 0 mm 3 mps 760 mmHg 69%
    19:00 -4°C° 0 mm 3 mps 760 mmHg 70%
    20:00 -4°C° 0 mm 3 mps 760 mmHg 71%
    21:00 -4°C° 0 mm 3 mps 761 mmHg 72%
    22:00 -3°C° 0 mm 2 mps 761 mmHg 72%
    23:00 -4°C° 0 mm 2 mps 762 mmHg 74%

    21 January, Monday

    Time Temperature Precipitation Wind Pressure Humidity
    00:00 -4°C° 0 mm 2 mps 762 mmHg 75%
    01:00 -4°C° 0 mm 2 mps 762 mmHg 76%
    02:00 -4°C° 0 mm 2 mps 762 mmHg 76%
    03:00 -4°C° 0 mm 2 mps 763 mmHg 76%
    04:00 -2°C° 0 mm 1 mps 763 mmHg 76%
    05:00 -2°C° 0 mm 1 mps 763 mmHg 76%
    06:00 -3°C° 0 mm 1 mps 763 mmHg 76%
    07:00 -3°C° 0 mm 1 mps 763 mmHg 75%
    08:00 -2°C° 0 mm 1 mps 764 mmHg 72%
    09:00 -2°C° 0 mm 1 mps 764 mmHg 69%
    10:00 -2°C° 0 mm 0 mps 764 mmHg 66%
    11:00 -1°C° 0 mm 1 mps 764 mmHg 62%
    12:00 0°C° 0 mm 1 mps 764 mmHg 58%
    13:00 +1°C° 0 mm 1 mps 764 mmHg 54%
    14:00 0°C° 0 mm 1 mps 763 mmHg 56%
    15:00 0°C° 0 mm 1 mps 763 mmHg 58%
    16:00 -1°C° 0 mm 1 mps 763 mmHg 60%
    17:00 -1°C° 0 mm 1 mps 763 mmHg 61%
    18:00 -2°C° 0 mm 1 mps 763 mmHg 62%
    19:00 -4°C° 0 mm 2 mps 762 mmHg 63%
    20:00 -4°C° 0 mm 2 mps 762 mmHg 64%
    21:00 -4°C° 0 mm 2 mps 762 mmHg 65%
    22:00 -4°C° 0 mm 2 mps 762 mmHg 66%
    23:00 -5°C° 0 mm 3 mps 761 mmHg 67%
    Show more